TimeEST,TemperatureF,Dew PointF,Humidity,Sea Level PressureIn,VisibilityMPH,Wind Direction,Wind SpeedMPH,Gust SpeedMPH,PrecipitationIn,Events,Conditions,WindDirDegrees,DateUTC
12:54 AM,46.9,37.9,71,30.44,10.0,NNE,11.5,-,N/A,,Overcast,20,2012-11-19 05:54:00
1:54 AM,46.9,37.9,71,30.43,10.0,NNE,12.7,-,N/A,,Overcast,20,2012-11-19 06:54:00
2:54 AM,46.0,37.9,73,30.42,10.0,NNE,10.4,-,N/A,,Overcast,20,2012-11-19 07:54:00
3:23 AM,46.4,37.4,71,30.41,10.0,NNE,11.5,-,N/A,,Overcast,30,2012-11-19 08:23:00
3:54 AM,46.0,37.9,73,30.40,10.0,NNE,13.8,18.4,N/A,,Overcast,20,2012-11-19 08:54:00
4:28 AM,46.4,37.4,71,30.40,10.0,North,10.4,-,N/A,,Overcast,10,2012-11-19 09:28:00
4:54 AM,46.0,37.9,73,30.41,10.0,NNE,12.7,-,N/A,,Overcast,30,2012-11-19 09:54:00
5:54 AM,46.0,37.9,73,30.40,10.0,NNE,11.5,-,N/A,,Overcast,20,2012-11-19 10:54:00
6:54 AM,46.0,37.9,73,30.40,10.0,NNE,11.5,-,N/A,,Overcast,20,2012-11-19 11:54:00
7:54 AM,46.9,37.9,71,30.40,10.0,NNE,13.8,-,N/A,,Overcast,20,2012-11-19 12:54:00
8:40 AM,46.4,37.4,71,30.39,10.0,NNE,16.1,-,N/A,,Overcast,20,2012-11-19 13:40:00
8:54 AM,48.0,37.9,68,30.40,10.0,NNE,11.5,-,N/A,,Overcast,30,2012-11-19 13:54:00
9:54 AM,48.9,37.9,66,30.40,10.0,NNE,10.4,-,N/A,,Overcast,30,2012-11-19 14:54:00
10:54 AM,51.1,39.0,63,30.39,10.0,NNE,9.2,-,N/A,,Overcast,30,2012-11-19 15:54:00
11:12 AM,51.8,39.2,62,30.37,10.0,NNE,9.2,-,N/A,,Overcast,30,2012-11-19 16:12:00
11:54 AM,53.1,39.0,59,30.36,10.0,NE,10.4,-,N/A,,Overcast,40,2012-11-19 16:54:00
12:54 PM,55.0,39.0,55,30.32,10.0,NNE,11.5,16.1,N/A,,Scattered Clouds,30,2012-11-19 17:54:00
1:38 PM,53.6,39.2,58,30.30,10.0,Variable,4.6,-,N/A,,Mostly Cloudy,0,2012-11-19 18:38:00
1:49 PM,53.6,39.2,58,30.30,10.0,NE,11.5,-,N/A,,Overcast,40,2012-11-19 18:49:00
1:54 PM,54.0,39.9,59,30.30,10.0,NE,6.9,-,N/A,,Overcast,40,2012-11-19 18:54:00
2:54 PM,54.0,39.9,59,30.29,10.0,NE,8.1,-,N/A,,Overcast,40,2012-11-19 19:54:00
3:54 PM,54.0,39.9,59,30.29,10.0,NE,6.9,-,N/A,,Overcast,40,2012-11-19 20:54:00
4:54 PM,50.0,39.0,66,30.28,10.0,NNE,4.6,-,N/A,,Scattered Clouds,20,2012-11-19 21:54:00
5:54 PM,44.1,37.9,79,30.28,10.0,Calm,Calm,-,N/A,,Clear,0,2012-11-19 22:54:00
6:54 PM,41.0,37.0,86,30.28,10.0,Calm,Calm,-,N/A,,Clear,0,2012-11-19 23:54:00
7:54 PM,39.9,37.0,89,30.27,10.0,Calm,Calm,-,N/A,,Clear,0,2012-11-20 00:54:00
8:54 PM,39.9,37.0,89,30.27,10.0,Calm,Calm,-,N/A,,Clear,0,2012-11-20 01:54:00
9:54 PM,37.0,35.1,93,30.25,10.0,Calm,Calm,-,N/A,,Clear,0,2012-11-20 02:54:00
10:54 PM,41.0,37.9,89,30.24,10.0,North,3.5,-,N/A,,Clear,350,2012-11-20 03:54:00
11:54 PM,37.9,36.0,93,30.23,10.0,Calm,Calm,-,N/A,,Clear,0,2012-11-20 04:54:00